Location: Harbledown
(51.2833°N, 1.0333°E)
Time: 11:30:28
(UTC+00:00)

Daily predictions for brighter satellites

Satellite Brightness Start Highest point End
(mag) Time Altitude Azimuth Time Altitude Azimuth Time Altitude Azimuth
ATLAS 3B R/B 3.6 20:10:59 10° NW 20:17:45 49° WSW 20:24:45 10° SSE
CZ-4C R/B 4.4 20:12:47 10° WNW 20:17:50 29° N 20:23:48 10° NE
Cosmos 2360 Rocket 2.9 20:12:32 10° NNW 20:17:55 43° NE 20:23:16 10° ESE
ATLAS 2AS CENTAUR R/B 3.5 20:13:47 10° WSW 20:21:41 68° NW 20:29:18 10° NE
Resurs 1-3 4.3 20:17:47 10° S 20:22:06 57° W 20:26:27 10° NNW
MetOp-B 4.2 20:20:18 10° SSE 20:25:37 68° ENE 20:30:58 10° N
Cosmos 2221 4.4 20:21:58 10° NNW 20:25:49 32° W 20:29:40 10° SSW
Cosmos 1092 Rocket 4.2 20:21:23 10° S 20:27:31 59° E 20:33:44 10° NNE
ISS -1.3 20:26:48 10° WSW 20:28:42 14° SW 20:30:37 10° S
NOSS 2-1 (C) 4.4 20:29:35 10° SSE 20:31:46 17° ESE 20:33:58 10° ENE
Cosmos 2151 2.9 20:27:59 10° S 20:32:14 77° E 20:36:32 10° NNE
ERS-2 2.1 20:29:49 10° NNE 20:33:30 82° ESE 20:37:08 10° SSW
Cosmos 2026 Rocket 4.2 20:30:24 10° SSE 20:36:32 56° E 20:42:36 10° NNE
Cosmos 1812 3.7 20:33:37 10° N 20:37:08 32° ENE 20:40:31 11° SE
Cosmos 2084 4.2 20:33:45 10° S 20:37:14 28° ESE 20:40:49 10° ENE
COSMOS 2455 4.4 20:35:21 10° SE 20:38:23 14° ESE 20:41:26 10° ENE
Cosmos 158 Rocket 4.0 20:33:41 10° SSW 20:38:53 85° ESE 20:44:16 10° NNE
Cosmos 2333 Rocket 3.3 20:33:45 10° NNW 20:38:55 35° NE 20:44:03 10° ESE
Cosmos 1980 Rocket 4.1 20:34:26 10° NW 20:39:01 26° WSW 20:43:37 10° SSW
GP-B 3.5 20:34:48 10° NNE 20:39:08 47° E 20:43:25 10° SSE
NOSS 2-1 (D) 4.2 20:37:00 10° S 20:39:28 20° ESE 20:41:58 10° ENE
BREEZE-M DEB (TANK) 4.3 20:38:22 10° W 20:41:31 38° SSW 20:49:45 10° SE
Cosmos 923 Rocket 4.1 20:37:29 10° S 20:42:43 59° ESE 20:47:59 10° NNE
SPOT 1/Viking Rocket 3.6 20:39:22 10° SSE 20:44:33 84° ENE 20:49:50 10° NNW
Nadezhda 4 Rocket 4.4 20:38:38 10° SSW 20:44:48 71° WNW 20:51:06 10° N
ERS-1 Rocket 3.6 20:40:25 10° SE 20:45:09 43° ENE 20:49:54 10° N
GEOS 3 Rocket 4.1 20:41:44 10° NE 20:46:57 67° NW 20:52:03 10° WSW
USA 245 3.5 20:42:36 10° SSE 20:47:15 71° ENE 20:50:59 10° N
SL-27 R/B 3.9 20:44:41 11° SSE 20:47:17 21° E 20:50:04 10° NE
USA 276 4.2 20:48:52 10° WSW 20:51:00 17° SSW 20:53:08 10° S
Cosmos 2237 Rocket 4.3 20:47:14 10° NNW 20:51:04 18° NNE 20:54:53 10° ENE
Cosmos 2056 Rocket 3.7 20:46:05 10° NNW 20:51:28 68° ENE 20:56:16 12° SE
Cosmos 2322 Rocket 2.3 20:46:46 10° NNW 20:52:26 80° WSW 20:57:55 11° SSE
Okean 3 Rocket 4.0 20:48:48 10° SSE 20:53:06 46° E 20:57:26 10° NNE
CARTOSAT-1 3.5 20:59:31 12° SSE 21:03:35 80° ENE 21:07:55 10° NNW
Cosmos 1428 Rocket 4.4 20:57:56 10° S 21:04:04 85° E 21:10:13 10° N
Gblst 52 Del rocket 4.4 20:58:27 10° W 21:04:21 88° S 21:11:04 10° ESE
USA 234 3.9 20:59:35 10° E 21:05:58 56° N 21:12:20 10° WNW
Spot 2 Rocket 3.5 21:03:04 11° SSE 21:08:00 88° ENE 21:13:09 10° NNW
Cosmos 2219 Rocket 2.9 21:04:32 10° NNW 21:09:53 44° NE 21:14:26 14° ESE
Cosmos 1371 Rocket 4.2 21:07:54 10° NNW 21:13:18 78° WSW 21:17:55 14° SSE
Resurs 01 Rocket 3.3 21:11:00 10° SSW 21:14:58 31° W 21:18:58 10° NNW
Cosmos 1680 Rocket 3.5 21:11:23 10° SSW 21:16:40 83° ESE 21:21:57 10° NNE
Cosmos 2112 Rocket 4.0 21:11:54 10° SSW 21:17:11 74° ESE 21:22:26 10° NNE
Cosmos 1515 Rocket 3.8 21:13:07 10° N 21:17:31 57° ENE 21:20:37 18° SSE
Cosmos 1151 Rocket 3.3 21:13:18 10° NNW 21:17:39 67° W 21:21:47 11° S
Cosmos 1553 Rocket 3.9 21:14:46 10° N 21:20:54 87° E 21:26:23 13° S
Terra 2.0 21:19:00 17° SSE 21:22:32 63° ENE 21:27:16 10° N
SL-16 R/B 3.3 21:17:40 10° NW 21:22:55 39° WSW 21:28:08 10° S
CZ-2C R/B 3.9 21:22:02 10° NNE 21:26:33 75° WNW 21:31:00 10° SSW
ATLAS 5 CENTAUR R/B 2.8 21:22:40 10° NW 21:27:46 52° NE 21:33:05 13° ESE
Cosmos 2333 4.2 21:23:38 10° NNW 21:29:17 76° ENE 21:33:17 20° SE
Cosmos 1809 Rocket 4.5 21:24:47 10° S 21:30:57 89° E 21:37:08 10° N
Cosmos 1328 Rocket 3.9 21:27:02 10° NNW 21:31:27 64° W 21:35:09 14° S
Cosmos 2228 Rocket 4.0 21:28:47 10° N 21:32:53 36° ENE 21:35:17 21° SE
Cosmos 1766 Rocket 3.8 21:28:47 10° SSW 21:33:10 71° WNW 21:37:32 10° N
NOSS 2-1 (E) 2.8 21:34:14 10° SSW 21:37:27 62° SE 21:40:55 10° NE
COSMOS 2428 3.1 21:31:56 10° NNW 21:37:33 55° NE 21:41:31 19° SE
SPOT 5 2.8 21:36:48 18° S 21:39:59 68° WSW 21:44:28 10° NNW
ARIANE 5 R/B 3.1 21:36:31 15° S 21:40:07 56° W 21:44:30 10° NNW
NOSS 3-1 (C) 4.1 21:35:44 10° NW 21:43:02 81° SW 21:49:24 20° SE
Cosmos 1862 3.3 21:39:48 15° S 21:43:03 88° WNW 21:47:02 10° N
Cosmos 292 Rocket 3.9 21:39:22 10° NNW 21:44:08 73° WSW 21:47:10 22° SSE
Meteor 2-6 Rocket 4.5 21:42:24 10° NNW 21:47:43 61° W 21:52:01 16° S
S3M 4.1 21:46:35 10° NNW 21:53:01 82° W 21:57:51 19° S
Meteor 2-21 Rocket 4.4 21:50:10 13° S 21:55:52 88° E 22:02:04 10° N
USA 229 DEB 3.9 21:51:45 10° NW 21:59:02 87° NE 22:04:27 22° SE
USA 229 3.9 21:51:51 10° NW 21:59:08 87° NE 22:04:33 22° SE
Cosmos 1655 Rocket 4.0 21:54:13 16° S 21:59:24 80° E 22:05:51 10° NNE
COSMOS 2487 2.8 22:00:10 37° SE 22:00:37 39° ESE 22:03:49 10° NE
ALOS 2 4.4 21:59:23 15° E 22:01:39 21° ENE 22:04:59 10° NNE
Cosmos 2360 Rocket 3.0 21:56:40 10° NW 22:01:56 42° WSW 22:05:41 18° S
Cosmos 972 Rocket 4.2 21:59:17 24° SSE 22:02:06 49° ESE 22:06:53 10° NNE
Cosmos 1805 Rocket 4.1 22:02:11 29° SE 22:03:49 42° E 22:08:01 10° NNE
Cosmos 1174 4.4 22:03:13 10° WNW 22:05:50 27° WSW 22:06:29 25° SW
Cosmos 2084 Rocket 4.0 22:02:41 10° NW 22:06:44 50° NE 22:09:18 22° ESE
CZ-4C R/B 4.2 22:02:22 10° NW 22:08:12 34° NNE 22:15:04 10° E
USA 267 3.9 22:06:55 10° ENE 22:12:35 30° SE 22:14:47 25° SSE
Cosmos 1980 4.4 22:08:27 10° NNW 22:13:54 45° NE 22:17:31 20° ESE
Cosmos 1500 Rocket 3.5 22:11:54 26° S 22:14:21 88° E 22:18:50 10° N
NOSS 0 Rocket 4.2 22:08:51 10° NNW 22:15:05 64° NE 22:18:54 24° SE
Cosmos 2084 4.2 22:12:30 10° WSW 22:16:30 52° NW 22:20:40 10° NE
NOSS 3-1 (A) 4.1 22:12:11 10° NW 22:19:31 79° SW 22:25:00 25° SSE
NOSS 2-1 (C) 3.9 22:18:38 10° WSW 22:21:48 47° NW 22:25:16 10° NE
SL-27 R/B 4.0 22:18:46 10° SW 22:22:08 36° WNW 22:25:31 10° N
Meteor 1-27 Rocket 3.9 22:16:46 10° NNW 22:22:23 68° W 22:25:47 25° S
Cosmos 1833 4.4 22:17:07 10° SW 22:22:54 74° WNW 22:28:43 10° NNE
COSMOS 2455 2.8 22:17:53 13° SSW 22:23:15 69° ESE 22:29:15 10° NE
Cosmos 2333 Rocket 2.6 22:17:57 10° NW 22:23:29 55° WSW 22:26:23 27° S
Cosmos 1452 Rocket 3.7 22:18:28 10° NNW 22:23:41 64° WSW 22:26:16 30° S
ERS-1 Rocket 4.3 22:20:25 14° SSW 22:24:05 31° W 22:28:34 10° NNW
Lacrosse 5 3.5 22:25:50 18° ESE 22:25:50 18° ESE 22:28:09 10° E
H-2A R/B 3.4 22:20:47 10° NNE 22:25:02 88° W 22:27:05 30° SSW
Meteor 1-20 Rocket 4.4 22:23:03 30° SSE 22:25:41 55° E 22:31:16 10° NNE
COBE Rocket 3.8 22:26:51 35° SSE 22:28:47 70° ENE 22:33:30 10° N
NOSS 2-1 (D) 4.2 22:26:29 10° WSW 22:29:36 41° NW 22:33:02 10° NE
BREEZE-M R/B 3.8 22:27:00 10° SW 22:31:56 24° ESE 22:34:10 10° E
Cosmos 2322 4.2 22:25:01 10° NW 22:30:35 52° WSW 22:33:25 28° S
Cosmos 2297 Rocket 3.5 22:32:08 21° ESE 22:33:00 22° ESE 22:37:16 10° NE
Cosmos 1500 4.3 22:34:31 29° E 22:34:51 29° E 22:38:13 10° NNE
Cosmos 1743 Rocket 4.0 22:32:53 23° SSW 22:35:30 60° WNW 22:39:54 10° N
Sich 1 3.0 22:34:10 41° SSE 22:35:33 67° E 22:39:52 10° NNE
Cosmos 2322 Rocket 4.4 22:32:32 10° WNW 22:35:33 15° W 22:38:35 10° SW
Cosmos 2237 Rocket 2.6 22:30:46 10° NNW 22:36:23 58° NE 22:39:29 27° SE
BREEZE-M DEB (TANK) 3.1 22:38:49 10° W 22:42:20 29° SW 22:42:20 29° SW
Cosmos 1633 Rocket 3.6 22:44:03 37° ESE 22:44:56 41° E 22:49:02 10° NNE
Cosmos 2227 Rocket 3.6 22:44:30 20° ESE 22:45:18 21° E 22:49:24 10° NE
Cosmos 1110 Rocket 4.0 22:40:40 10° NNW 22:46:01 77° WSW 22:48:10 37° S
Cosmos 1331 Rocket 3.9 22:43:14 10° NNW 22:48:29 80° WSW 22:50:32 38° SSE
USA 234 3.3 22:42:59 14° ESE 22:48:43 83° NNE 22:55:19 10° WNW
Cosmos 1666 Rocket 3.7 22:50:45 44° SSE 22:51:51 58° E 22:56:15 10° NNE
Cosmos 2219 Rocket 3.0 22:48:39 10° NW 22:53:50 40° WSW 22:56:08 27° SSW
NOSS 2-2 (E) 4.3 22:51:54 10° NW 22:57:02 88° NE 23:00:50 28° SE
Terra 3.8 22:57:53 13° SW 23:00:43 20° W 23:04:13 10° NW
Cosmos 1515 4.1 23:00:35 10° NNW 23:04:16 51° W 23:04:57 44° SW
Spot 4 3.9 23:03:05 41° S 23:04:44 72° WSW 23:09:35 10° NNW
SL-16 R/B 3.2 23:00:28 10° NNW 23:05:49 40° NE 23:09:38 18° ESE
Meteor 1-18 Rocket 4.2 23:02:29 10° NNW 23:08:22 85° W 23:10:44 38° S
Meteor 1-25 Rocket 4.2 23:06:07 31° SSW 23:08:54 78° WNW 23:14:29 10° N
ATLAS 5 CENTAUR R/B 2.8 23:07:15 10° NW 23:12:32 46° SW 23:14:35 34° S
Cosmos 1862 Rocket 3.4 23:08:44 10° N 23:13:07 88° E 23:14:06 54° SSE
SL-08 R/B 4.4 23:11:22 36° S 23:14:03 74° E 23:20:12 10° NNE
Okean 1 3.6 23:10:23 10° NNW 23:14:20 57° W 23:15:05 48° SW
Cosmos 1602 4.1 23:14:27 44° SW 23:15:22 58° WNW 23:19:12 10° N
Cosmos 494 Rocket 4.0 23:12:47 30° SW 23:15:23 75° WNW 23:20:33 10° NNE
COSMOS 2428 3.8 23:16:37 10° NW 23:21:35 31° WSW 23:23:31 25° SW
SL-08 ROCKET BODY 4.4 23:19:01 35° S 23:21:47 89° WNW 23:28:01 10° N
Cosmos 1707 Rocket 4.2 23:17:45 10° NNW 23:21:55 44° W 23:23:04 36° SW
NOSS 2-2 (C) 4.2 23:16:56 10° NW 23:22:01 80° SW 23:25:11 33° SE
Meteor 2-4 Rocket 3.8 23:16:40 10° NNW 23:22:39 87° ENE 23:24:59 39° SSE
Cosmos 1666 2.8 23:26:25 55° ESE 23:26:39 57° E 23:30:27 10° NNE
Cosmos 1703 Rocket 4.1 23:24:18 10° N 23:28:33 48° ENE 23:29:38 39° ESE
Cosmos 1992 Rocket 4.3 23:29:20 10° NNW 23:34:33 63° ENE 23:36:41 34° SE
TSX-5 3.9 23:35:45 58° SSW 23:36:33 84° ESE 23:41:33 10° NE
ALOS 2 2.9 23:36:46 47° SW 23:37:39 56° W 23:42:00 10° NNW
Meteor 1-5 Rocket 4.3 23:35:45 41° S 23:37:50 71° E 23:43:44 10° NNE
Cosmos 1745 Rocket 4.0 23:39:17 38° S 23:41:53 82° E 23:48:14 10° NNE
Cosmos 2219 3.4 23:42:23 42° SSE 23:44:06 59° ESE 23:49:46 10° NE
Cosmos 1302 Rocket 4.3 23:39:07 10° NNW 23:44:12 54° WSW 23:45:34 42° SSW
Cosmos 2084 Rocket 4.5 23:42:21 10° WNW 23:45:47 31° WSW 23:45:47 31° WSW
Cosmos 1269 Rocket 3.9 23:47:42 44° SSW 23:49:26 83° ESE 23:54:45 10° NNE
Meteor 1-13 Rocket 4.3 23:44:26 10° N 23:50:15 74° ENE 23:52:26 39° SSE
Meteor 1-14 Rocket 4.3 23:51:46 37° SSW 23:54:00 73° WNW 23:59:43 10° N
Okean 1-7 2.9 23:51:19 10° N 23:55:37 85° E 23:56:19 61° SSE
